TimeMDT,TemperatureF,Dew PointF,Humidity,Sea Level PressureIn,VisibilityMPH,Wind Direction,Wind SpeedMPH,Gust SpeedMPH,PrecipitationIn,Events,Conditions,WindDirDegrees,DateUTC
12:22 AM,53.1,50.0,89,29.92,10.0,NW,8.1,-,0.00,Rain,Light Rain,320,2013-05-19 06:22:00
12:45 AM,53.1,48.9,86,29.93,10.0,NNW,9.2,-,0.00,,Overcast,330,2013-05-19 06:45:00
12:53 AM,53.1,48.9,86,29.90,10.0,NW,9.2,-,0.00,,Overcast,320,2013-05-19 06:53:00
1:38 AM,52.0,48.9,89,29.93,10.0,WNW,6.9,-,N/A,,Overcast,300,2013-05-19 07:38:00
1:48 AM,51.8,48.2,88,29.93,10.0,NW,6.9,-,0.00,Rain,Light Rain,310,2013-05-19 07:48:00
1:53 AM,52.0,48.0,86,29.91,10.0,WNW,6.9,-,0.00,Rain,Light Rain,300,2013-05-19 07:53:00
2:31 AM,52.0,48.0,86,29.92,10.0,NW,6.9,-,0.01,Rain,Light Rain,310,2013-05-19 08:31:00
2:53 AM,52.0,48.9,89,29.90,8.0,WNW,6.9,-,0.03,Rain,Light Rain,300,2013-05-19 08:53:00
3:00 AM,52.0,48.9,89,29.91,10.0,WNW,8.1,-,0.00,Rain,Light Rain,300,2013-05-19 09:00:00
3:53 AM,52.0,48.9,89,29.90,10.0,NW,8.1,-,0.01,,Overcast,320,2013-05-19 09:53:00
4:42 AM,52.0,48.9,89,29.92,10.0,NNW,11.5,-,0.01,,Overcast,330,2013-05-19 10:42:00
4:53 AM,52.0,48.9,89,29.90,10.0,NNW,11.5,-,0.01,,Overcast,330,2013-05-19 10:53:00
5:20 AM,51.1,48.0,89,29.91,10.0,NNW,12.7,-,N/A,,Overcast,330,2013-05-19 11:20:00
5:37 AM,51.1,48.9,92,29.91,10.0,NNW,15.0,-,N/A,,Overcast,330,2013-05-19 11:37:00
5:53 AM,51.8,48.2,88,29.91,10.0,NNW,13.8,-,N/A,,Overcast,330,2013-05-19 11:53:00
6:22 AM,51.1,48.0,89,29.92,10.0,NNW,12.7,-,N/A,,Overcast,330,2013-05-19 12:22:00
6:53 AM,51.1,48.0,89,29.90,10.0,NNW,11.5,-,N/A,,Overcast,330,2013-05-19 12:53:00
7:05 AM,51.1,48.0,89,29.92,10.0,NNW,13.8,-,N/A,,Overcast,340,2013-05-19 13:05:00
7:53 AM,51.1,48.9,92,29.91,10.0,NNW,16.1,-,0.00,Rain,Light Rain,340,2013-05-19 13:53:00
8:16 AM,51.1,48.9,92,29.93,10.0,NNW,16.1,-,0.01,Rain,Light Rain,330,2013-05-19 14:16:00
8:53 AM,51.1,48.9,92,29.92,9.0,NNW,13.8,-,0.03,Rain,Light Rain,340,2013-05-19 14:53:00
9:14 AM,51.1,48.9,92,29.93,6.0,NNW,17.3,-,0.04,Rain,Rain,340,2013-05-19 15:14:00
9:23 AM,51.1,48.0,89,29.93,6.0,NNW,18.4,-,0.06,Rain,Rain,330,2013-05-19 15:23:00
9:53 AM,50.0,48.0,93,29.93,4.0,NW,15.0,-,0.13,Rain,Rain,320,2013-05-19 15:53:00
10:53 AM,51.1,48.0,89,29.93,6.0,NW,18.4,25.3,0.11,Rain,Light Rain,310,2013-05-19 16:53:00
11:53 AM,50.0,48.0,93,29.92,6.0,NW,23.0,-,0.09,Rain,Rain,320,2013-05-19 17:53:00
12:53 PM,51.8,48.2,88,29.94,9.0,NNW,26.5,34.5,N/A,Rain,Light Rain,330,2013-05-19 18:53:00
1:39 PM,51.1,48.0,89,29.95,6.0,NW,19.6,27.6,0.04,Rain,Rain,320,2013-05-19 19:39:00
1:53 PM,51.8,48.2,88,29.95,10.0,NNW,24.2,29.9,N/A,Rain,Light Rain,330,2013-05-19 19:53:00
2:53 PM,53.1,50.0,89,29.94,7.0,NNW,20.7,-,0.08,Rain,Light Rain,330,2013-05-19 20:53:00
3:53 PM,52.0,48.0,86,29.96,10.0,NW,26.5,32.2,0.03,Rain,Light Rain,320,2013-05-19 21:53:00
4:53 PM,52.0,48.9,89,29.98,5.0,NW,20.7,-,0.04,Rain,Rain,320,2013-05-19 22:53:00
5:53 PM,52.0,50.0,93,29.99,10.0,NNW,15.0,-,0.06,,Overcast,330,2013-05-19 23:53:00
6:25 PM,52.0,50.0,93,30.01,2.5,North,15.0,-,0.04,Rain,Heavy Rain,350,2013-05-20 00:25:00
6:38 PM,52.0,50.0,93,30.01,6.0,NNW,15.0,-,0.06,Rain,Light Rain,340,2013-05-20 00:38:00
6:53 PM,52.0,50.0,93,30.00,10.0,NNW,13.8,-,0.07,Rain,Light Rain,340,2013-05-20 00:53:00
7:23 PM,52.0,48.9,89,30.02,10.0,NNW,16.1,-,0.02,Rain,Light Rain,330,2013-05-20 01:23:00
7:53 PM,52.0,48.9,89,30.01,10.0,NNW,15.0,-,0.04,Rain,Light Rain,340,2013-05-20 01:53:00
8:53 PM,52.0,48.9,89,30.03,10.0,NNW,13.8,-,0.00,Rain,Light Rain,340,2013-05-20 02:53:00
9:53 PM,50.0,46.4,87,30.04,10.0,NNW,15.0,-,N/A,,Overcast,330,2013-05-20 03:53:00
10:53 PM,50.0,46.9,89,30.04,10.0,NNW,15.0,-,0.00,Rain,Light Rain,330,2013-05-20 04:53:00
11:53 PM,50.0,46.9,89,30.04,10.0,NW,16.1,-,0.03,,Overcast,320,2013-05-20 05:53:00